User: anonymous   Login
Location: Erdweis
(48.5167°N, 15.3500°E)
Time: 05:05:42
(UTC+00:00)
Language:

Lacrosse 4 Rocket - Orbit

View from above orbital plane
View from above orbital plane
View from above satellite
View from above satellite

Ground track
Ground track

The orbit data is extracted from the following two-line orbital elements,

1 26474U   047B   20337.26881518  .00000542  00000-0  57662-4 0  9999
2 26474  67.9938 333.7502 0055153   7.7541 352.4440 14.96032494104349
Epoch (UTC): 02 December 2020 06:27:05
Eccentricity: 0.0055153
inclination: 67.9938°
perigee height: 541 km
apogee height: 617 km
right ascension of ascending node: 333.7502°
argument of perigee: 7.7541°
revolutions per day: 14.96032494
mean anomaly at epoch: 352.4440°
orbit number at epoch: 10434

The dashed part of the orbit path shows where the satellite is in the earth's shadow,  

DLR